Flag for Germany Weather past 2 weeks in Rathenow, Brandenburg, Germany

Now
37 °F

Overcast.


Feels Like: 30 °F
Forecast: 38 / 44 °F
Wind: 10 mph from South

Location: Neuruppin

Current Time: Mar 1, 2015 at 8:22:37 AM

Latest Report: Mar 1, 2015 at 8:00 AM


Visibility: 6 mi

Pressure: 29.67 "Hg

Humidity: 79%

Dew point: 31 °F

Location of RathenowLocation

Historic Weather in Rathenow — Graph

°F

Rathenow temperature yesterday

Maximum temperature yesterday: 42 °F (at 3:00 PM)
Minimum temperature yesterday: 32 °F (at 8:00 AM)
Average temperature yesterday: 37 °F

Past Weeks' High & Low Weather Summary

 TemperatureHumidityPressure
High49 °F (Feb 21, 11:00 AM)100% (Feb 18, 3:00 AM)30.73 "Hg (Feb 18, 3:00 AM)
Low26 °F (Feb 26, 5:00 AM)50% (Feb 26, 2:00 PM)29.35 "Hg (Feb 21, 11:00 AM)
Average36 °F83%30.01 "Hg
* Reported Feb 14 7:00 AM — Mar 1 7:00 AM, Rathenow, Weather by CustomWeather, © 2015

Note: Actual official high and low records may vary slightly from our data, if they occured in-between our weather recording intervals... More about our weather records

Advertising

Rathenow weather history for previous 24 hours

 ConditionsComfort  
Time TempWeatherWind HumidityBarometerVisibility
7:00 AM
Sun, Mar 1
36 °FOvercast.9 mph79%29.70 "Hg6 mi
6:00 AM35 °FOvercast.9 mph80%29.73 "Hg6 mi
5:00 AM35 °FPassing clouds.8 mph81%29.77 "Hg6 mi
3:00 AM34 °FPassing clouds.7 mph80%29.83 "Hg6 mi
2:00 AM34 °FClear.7 mph81%29.88 "Hg6 mi
1:00 AM34 °FClear.6 mph81%29.90 "Hg6 mi
12:00 AM34 °FClear.5 mph82%29.94 "Hg6 mi
11:00 PM
Sat, Feb 28
34 °FClear.3 mph82%29.97 "Hg6 mi
9:00 PM36 °FClear.5 mph75%30.01 "Hg6 mi
8:00 PM35 °FClear.3 mph83%30.03 "Hg6 mi
7:00 PM34 °FClear.3 mph83%30.05 "Hg6 mi
6:00 PM37 °FClear.2 mph77%30.05 "Hg6 mi
5:00 PM42 °FPassing clouds.2 mph61%30.06 "Hg6 mi
4:00 PM42 °FPartly sunny.3 mph60%30.08 "Hg6 mi
3:00 PM42 °FOvercast.3 mph61%30.09 "Hg6 mi
2:00 PM41 °FOvercast.3 mph64%30.10 "Hg6 mi
1:00 PM41 °FOvercast.3 mph68%30.11 "Hg6 mi
12:00 PM40 °FOvercast.3 mph69%30.12 "Hg6 mi
11:00 AM36 °FPartly sunny.2 mph89%30.13 "Hg6 mi
10:00 AM36 °FScattered clouds.3 mph89%30.13 "Hg6 mi
9:00 AM35 °FSunny.2 mph90%30.12 "Hg6 mi
8:00 AM32 °FPassing clouds.2 mph96%30.11 "Hg2 mi
Weather by CustomWeather, © 2015

See weather overviewHow to use our weather pages